Location: Bois de la Silve
(44.4667°N, 6.7833°E)
Time: 00:03:01
(UTC+00:00)

Iridium 4 Rocket - Pass Details

Date: 14 July 2020
Orbit: 583 x 906 km, 86.9° (Epoch: 03 August)

Event Time Altitude Azimuth Distance (km) Brightness Sun altitude
Exits shadow 00:24:12 54° 185° (S) 1,035 3.7 -23.1°
Maximum altitude 00:25:35 88° 271° (W) 851 3.6 -23.0°
Drops below altitude 10° 00:30:59 10° 2° (N) 2,376 7.1 -22.8°
Sets 00:33:16 0° 3° (N) 3,261 8.2 -22.7°
